TimeCDT,TemperatureF,Dew PointF,Humidity,Sea Level PressureIn,VisibilityMPH,Wind Direction,Wind SpeedMPH,Gust SpeedMPH,PrecipitationIn,Events,Conditions,WindDirDegrees,DateUTC
12:53 AM,59.0,55.0,87,29.92,10.0,WNW,5.8,-,N/A,,Clear,300,2013-05-10 05:53:00
1:53 AM,57.9,55.0,90,29.90,8.0,NW,8.1,-,N/A,,Clear,320,2013-05-10 06:53:00
2:53 AM,57.0,54.0,89,29.91,8.0,NNW,6.9,-,N/A,,Clear,340,2013-05-10 07:53:00
3:53 AM,55.9,54.0,93,29.92,6.0,NNW,6.9,-,N/A,,Scattered Clouds,340,2013-05-10 08:53:00
4:24 AM,55.4,53.6,94,29.94,5.0,North,6.9,-,N/A,,Mostly Cloudy,350,2013-05-10 09:24:00
4:53 AM,55.9,54.0,93,29.93,5.0,North,4.6,-,N/A,,Mostly Cloudy,360,2013-05-10 09:53:00
5:53 AM,57.0,53.1,87,29.93,8.0,North,10.4,-,N/A,,Overcast,350,2013-05-10 10:53:00
6:01 AM,57.2,53.6,88,29.95,8.0,North,8.1,-,N/A,,Overcast,350,2013-05-10 11:01:00
6:11 AM,55.4,53.6,94,29.95,8.0,North,9.2,-,N/A,,Overcast,350,2013-05-10 11:11:00
6:38 AM,55.4,51.8,88,29.95,7.0,North,10.4,-,N/A,,Overcast,350,2013-05-10 11:38:00
6:53 AM,55.9,52.0,87,29.94,8.0,North,8.1,-,N/A,,Overcast,350,2013-05-10 11:53:00
8:53 AM,55.9,50.0,80,29.97,10.0,North,11.5,23.0,N/A,,Overcast,10,2013-05-10 13:53:00
9:15 AM,55.4,50.0,82,29.99,10.0,North,13.8,-,N/A,,Overcast,360,2013-05-10 14:15:00
9:29 AM,55.4,50.0,82,30.00,10.0,NNW,8.1,-,N/A,,Overcast,340,2013-05-10 14:29:00
9:53 AM,55.9,48.9,77,30.00,10.0,NNW,9.2,-,N/A,,Overcast,340,2013-05-10 14:53:00
10:34 AM,55.4,50.0,82,30.03,10.0,NNW,8.1,-,N/A,,Overcast,340,2013-05-10 15:34:00
10:53 AM,55.9,50.0,80,30.02,10.0,NNW,9.2,-,N/A,,Overcast,330,2013-05-10 15:53:00
12:51 PM,57.2,50.0,77,30.05,10.0,North,9.2,-,N/A,,Overcast,350,2013-05-10 17:51:00
12:53 PM,57.9,50.0,75,30.04,10.0,North,11.5,-,N/A,,Overcast,350,2013-05-10 17:53:00
1:53 PM,59.0,48.9,69,30.03,10.0,North,13.8,-,N/A,,Overcast,350,2013-05-10 18:53:00
2:53 PM,61.0,50.0,67,30.03,10.0,NNW,13.8,19.6,N/A,,Overcast,340,2013-05-10 19:53:00
3:46 PM,62.6,48.2,59,30.03,10.0,North,9.2,-,N/A,,Overcast,350,2013-05-10 20:46:00
3:53 PM,62.1,48.9,62,30.02,10.0,North,11.5,-,N/A,,Overcast,350,2013-05-10 20:53:00
4:53 PM,64.0,48.9,58,30.01,10.0,NNE,5.8,-,N/A,,Mostly Cloudy,20,2013-05-10 21:53:00
5:53 PM,66.9,46.9,49,29.99,10.0,NNW,9.2,-,N/A,,Clear,340,2013-05-10 22:53:00
6:53 PM,66.9,44.1,44,29.99,10.0,North,12.7,-,N/A,,Scattered Clouds,350,2013-05-10 23:53:00
7:53 PM,64.0,45.0,50,29.99,10.0,North,4.6,-,N/A,,Clear,350,2013-05-11 00:53:00
8:53 PM,60.1,45.0,57,30.01,10.0,Calm,Calm,-,N/A,,Clear,0,2013-05-11 01:53:00
9:53 PM,54.0,46.0,75,30.04,10.0,Calm,Calm,-,N/A,,Clear,0,2013-05-11 02:53:00
10:53 PM,54.0,46.0,75,30.05,10.0,Calm,Calm,-,N/A,,Clear,0,2013-05-11 03:53:00
11:53 PM,53.1,46.0,77,30.05,10.0,Calm,Calm,-,N/A,,Clear,0,2013-05-11 04:53:00